"Pseudo-MPEC" for P22n0fQ

Created 2026 May 14 16:35:07 UT using Find_Orb

Click here for an explanation of pseudo-MPECs

 
 Astrometry: 
     P22n0fQ*0C2026 05 07.36774815 07 16.525+09 17 11.84   ~57B5 21.95wXNEOCPF52
     P22n0fQ 0C2026 05 07.37985015 07 15.757+09 17 23.70   ~57B5 21.37wXNEOCPF52
     P22n0fQ 0C2026 05 07.40411115 07 14.190+09 17 46.65   ~57B5 22.02wXNEOCPF52

Station data:
(F52) Pan-STARRS 2, Haleakala  (N20.707382 W156.255910)  US/Hawaii.
   Observers J. Herman, T. Lowe, P. Minguez, A. Schultz, I. Smith. Measurers
   K. Chambers, T. de Boer, J. Fairlamb, H. Gao, M. Huber, C.-C. Lin, E.
   Magnier, Y. Ramanjooloo, R. Wainscoat, R. Weryk. 1.8-m Ritchey-Chrétien +
   CCD.

Orbital elements:  P22n0fQ
   Perihelion 2025 Dec 14.701040 +/- 259 TT = 16:49:29.8 (JD 2461024.201040)
Epoch 2026 May  7.0 TT = JDT 2461167.5   Earth MOID: 0.4509   Ju: 0.9749
M   9.046283525 +/- 58              Ma: 0.0286                   AutoNEOCP
n   0.063128744 +/- 0.13            Peri.  293.931189 +/- 80
a   6.246709055 +/- 8.59            Node   202.819318 +/- 42
e   0.80828891 +/- 0.271            Incl.   35.457641 +/- 29
P  15.61266                H 18.73  G  0.15   U 11.4  SR
q 1.197563389 +/- 0.866    Q 11.29585472 +/- 32.4         (J2000 ecliptic)
From 3 observations 2026 May 7 (52.4 min); mean residual 0".10
Residuals in arcseconds: 
260507 F52  .05-  .11-    260507 F52  .08+  .17+    260507 F52  .03-  .06-    

Ephemerides (geocentric):
Date (UTC) HH   RA             Dec           delta  r     elong  mag " sig PA
---- --------  ------------   ------------  ------ ------ -----  --- --------
2026 05 14 17  15 00 10.721   +10 57 48.45  1.3437 2.2746 149.8 21.9  25d  96
2026 05 14 18  15 00 08.478   +10 58 17.30  1.3442 2.2750 149.7 21.9  25d  96
2026 05 14 19  15 00 06.238   +10 58 46.10  1.3448 2.2754 149.7 21.9  25d  96
2026 05 14 20  15 00 03.999   +10 59 14.83  1.3453 2.2758 149.7 21.9  25d  96
2026 05 14 21  15 00 01.763   +10 59 43.51  1.3459 2.2762 149.7 21.9  25d  96
2026 05 14 22  14 59 59.529   +11 00 12.12  1.3464 2.2766 149.6 21.9  25d  96
2026 05 14 23  14 59 57.298   +11 00 40.68  1.3470 2.2770 149.6 21.9  25d  96
2026 05 15 00  14 59 55.068   +11 01 09.18  1.3475 2.2774 149.6 21.9  25d  96
2026 05 15 01  14 59 52.841   +11 01 37.62  1.3481 2.2777 149.5 21.9  25d  96
2026 05 15 02  14 59 50.615   +11 02 06.00  1.3486 2.2781 149.5 21.9  25d  96
2026 05 15 03  14 59 48.392   +11 02 34.32  1.3491 2.2785 149.5 21.9  24d  96
2026 05 15 04  14 59 46.172   +11 03 02.58  1.3497 2.2789 149.5 21.9  24d  96
2026 05 15 05  14 59 43.953   +11 03 30.79  1.3502 2.2793 149.4 21.9  24d  96
2026 05 15 06  14 59 41.737   +11 03 58.93  1.3508 2.2797 149.4 21.9  24d  96
2026 05 15 07  14 59 39.522   +11 04 27.02  1.3513 2.2801 149.4 21.9  24d  96
2026 05 15 08  14 59 37.310   +11 04 55.05  1.3519 2.2805 149.4 21.9  24d  96
2026 05 15 09  14 59 35.101   +11 05 23.01  1.3524 2.2809 149.3 21.9  24d  96
2026 05 15 10  14 59 32.893   +11 05 50.92  1.3530 2.2813 149.3 21.9  24d  96
2026 05 15 11  14 59 30.688   +11 06 18.77  1.3535 2.2817 149.3 21.9  24d  96
2026 05 15 12  14 59 28.484   +11 06 46.57  1.3541 2.2821 149.2 21.9  24d  96
2026 05 15 13  14 59 26.283   +11 07 14.30  1.3546 2.2825 149.2 21.9  24d  96
2026 05 15 14  14 59 24.085   +11 07 41.97  1.3552 2.2829 149.2 21.9  24d  96
2026 05 15 15  14 59 21.888   +11 08 09.59  1.3557 2.2833 149.2 21.9  24d  96
2026 05 15 16  14 59 19.694   +11 08 37.15  1.3563 2.2836 149.1 21.9  24d  96
2026 05 15 17  14 59 17.502   +11 09 04.65  1.3568 2.2840 149.1 22.0  24d  97
2026 05 15 18  14 59 15.312   +11 09 32.09  1.3574 2.2844 149.1 22.0  24d  97
2026 05 15 19  14 59 13.125   +11 09 59.47  1.3579 2.2848 149.0 22.0  24d  97
2026 05 15 20  14 59 10.939   +11 10 26.80  1.3585 2.2852 149.0 22.0  24d  97
2026 05 15 21  14 59 08.756   +11 10 54.06  1.3591 2.2856 149.0 22.0  24d  97
2026 05 15 22  14 59 06.575   +11 11 21.27  1.3596 2.2860 149.0 22.0  24d  97
2026 05 15 23  14 59 04.397   +11 11 48.42  1.3602 2.2864 148.9 22.0  24d  97
2026 05 16 00  14 59 02.220   +11 12 15.51  1.3607 2.2868 148.9 22.0  24d  97
2026 05 16 01  14 59 00.046   +11 12 42.54  1.3613 2.2872 148.9 22.0  24d  97
2026 05 16 02  14 58 57.875   +11 13 09.52  1.3618 2.2876 148.8 22.0  24d  97
2026 05 16 03  14 58 55.705   +11 13 36.43  1.3624 2.2880 148.8 22.0  24d  97
2026 05 16 04  14 58 53.538   +11 14 03.29  1.3629 2.2884 148.8 22.0  24d  97
2026 05 16 05  14 58 51.373   +11 14 30.09  1.3635 2.2887 148.8 22.0  24d  97
2026 05 16 06  14 58 49.210   +11 14 56.84  1.3641 2.2891 148.7 22.0  24d  97
2026 05 16 07  14 58 47.050   +11 15 23.52  1.3646 2.2895 148.7 22.0  24d  97
2026 05 16 08  14 58 44.891   +11 15 50.15  1.3652 2.2899 148.7 22.0  24d  97
2026 05 16 09  14 58 42.735   +11 16 16.71  1.3657 2.2903 148.6 22.0  24d  97
2026 05 16 10  14 58 40.582   +11 16 43.23  1.3663 2.2907 148.6 22.0  24d  97
2026 05 16 11  14 58 38.430   +11 17 09.68  1.3668 2.2911 148.6 22.0  24d  97
2026 05 16 12  14 58 36.281   +11 17 36.07  1.3674 2.2915 148.5 22.0  24d  97
2026 05 16 13  14 58 34.135   +11 18 02.41  1.3680 2.2919 148.5 22.0  24d  97
2026 05 16 14  14 58 31.990   +11 18 28.69  1.3685 2.2923 148.5 22.0  24d  97
2026 05 16 15  14 58 29.848   +11 18 54.91  1.3691 2.2927 148.5 22.0  24d  97
2026 05 16 16  14 58 27.708   +11 19 21.08  1.3696 2.2931 148.4 22.0  24d  97